SCP
0 0 0 0 0 0 0 0 0 0 0 0 0 1 1 1 1 2 1 1 0 0 0 0 0 0 1 1 1 2 2 2 2 1 1 1 1 1 1 1 1 1 1 1
0 0 0 0 0 0 0 0 0 0 0 0 0 1 1 1 1 2 2 1 1 1 1 0 0 0 1 1 1 2 2 2 2 2 1 1 1 1 1 2 1 1 1 0
0 0 0 0 0 0 0 0 0 0 0 1 1 1 1 1 2 2 2 2 1 1 1 1 1 1 1 1 1 2 2 2 2 2 2 1 1 1 2 2 1 1 1 0
0 0 0 0 0 1 1 1 1 1 1 1 1 1 1 2 2 2 2 2 1 1 1 1 1 1 1 1 1 2 2 2 3 3 2 2 1 1 1 1 1 1 1 0
0 0 0 0 1 1 1 1 1 1 2 2 2 2 2 2 2 1 1 1 1 1 1 1 1 1 1 1 1 2 2 2 2 3 3 2 2 1 1 1 1 1 1 1
0 0 0 0 1 1 1 1 2 2 2 2 2 2 2 2 1 1 1 1 1 1 1 1 1 1 1 2 2 1 1 1 1 2 2 2 2 1 1 1 1 1 1 1
0 0 0 0 0 1 1 1 2 2 2 2 2 2 2 1 1 1 0 0 1 1 1 1 1 1 1 1 1 1 1 1 1 1 1 2 2 2 1 1 1 1 1 1
0 0 0 0 0 0 0 1 1 2 1 1 2 2 2 1 1 0 0 0 0 1 1 0 0 0 1 1 1 1 0 0 0 1 1 1 1 2 2 2 1 1 1 1
0 0 0 0 0 0 0 1 1 1 1 1 1 2 1 1 0 0 0 0 0 0 0 0 0 0 0 0 0 0 0 0 0 0 0 1 1 1 2 2 1 1 1 1
0 0 0 0 0 0 0 1 1 1 1 1 1 1 1 0 0 0 0 0 0 0 0 0 0 0 0 0 0 0 0 0 0 0 0 0 1 1 1 1 1 1 1 1
0 0 0 0 0 0 0 0 0 1 1 1 1 1 1 0 0 0 0 0 0 0 0 0 0 0 0 0 0 0 0 0 0 0 0 0 0 0 0 0 0 1 1 1
0 0 0 0 0 0 0 0 0 0 0 0 0 0 0 0 0 0 0 0 0 0 0 0 0 0 0 0 0 0 0 0 0 0 0 0 0 0 0 0 0 0 0 0
0 0 0 0 0 0 0 0 0 0 0 0 0 0 0 0 0 0 0 0 0 0 0 0 0 0 0 0 0 0 0 0 0 0 0 0 0 0 0 0 0 0 0 0
0 0 0 0 0 0 0 0 0 0 0 0 0 0 0 0 0 0 0 0 0 0 0 0 0 0 0 0 0 0 0 0 0 0 0 0 0 0 0 0 0 0 0 0
0 0 0 0 0 0 0 0 0 0 0 0 0 0 0 0 0 0 0 0 0 0 0 0 0 0 0 0 0 0 0 0 0 0 0 0 0 0 0 0 0 0 0 0
0 0 0 0 0 0 0 0 0 0 0 0 0 0 0 0 0 0 0 0 0 0 0 0 0 0 0 0 0 0 0 0 0 0 0 0 0 0 0 0 0 0 0 0
0 0 0 0 0 0 0 0 0 0 0 0 0 0 0 0 0 0 0 0 0 0 0 0 0 0 0 0 0 0 0 0 0 0 0 0 0 0 0 0 0 0 0 0
0 0 0 0 0 0 0 0 0 0 0 0 0 0 0 0 0 0 0 0 0 0 0 0 0 0 0 0 0 0 0 0 0 0 0 0 0 0 0 0 0 0 0 0
0 0 0 0 0 0 0 0 0 0 0 0 0 0 0 0 0 0 0 0 0 0 0 0 0 0 0 0 0 0 0 0 0 0 0 0 0 0 0 0 0 0 0 0
0 0 0 0 0 0 0 0 0 0 0 0 0 0 0 0 0 0 0 0 0 0 0 0 0 0 0 0 0 0 0 0 0 0 0 0 0 0 0 0 0 0 0 0
0 0 0 0 0 0 0 0 0 0 0 0 0 0 0 0 0 0 0 0 0 0 0 0 0 0 0 0 0 0 0 0 0 0 0 0 0 0 0 0 0 0 0 0
0 0 0 0 0 0 0 0 0 0 0 0 0 0 0 0 0 0 0 0 0 0 0 0 0 0 0 0 0 0 0 0 0 0 0 0 0 0 0 0 0 0 0 0
0 0 0 0 0 0 0 0 0 0 0 0 0 0 0 0 0 0 0 0 0 0 0 0 0 0 0 0 0 0 0 0 0 0 0 0 0 0 0 0 0 0 0 0
0 0 0 0 0 0 0 0 0 0 0 0 0 0 0 0 0 0 0 0 0 0 0 0 0 0 0 0 0 0 0 0 0 0 0 0 0 0 0 0 0 0 0 0
0 0 0 0 0 0 0 0 0 0 0 0 0 0 0 0 0 0 0 0 0 0 0 0 0 0 0 0 0 0 0 0 0 0 0 0 0 0 0 0 0 0 0 0
0 0 0 0 0 0 0 0 0 0 0 0 0 0 0 0 0 0 0 0 0 0 0 0 0 0 0 0 0 0 0 0 0 0 0 0 0 0 0 0 0 0 0 0
0 0 0 0 0 0 0 0 0 0 0 0 0 0 0 0 0 0 0 0 0 0 0 0 0 0 0 0 0 0 0 0 0 0 0 0 0 0 0 0 0 0 0 0
Wind_Speed
6 6 5 5 6 6 7 8 9 8 7 8 5 4 3 3 4 5 4 4 5 5 5 5 5 5 6 7 7 8 8 8 8 7 7 6 6 7 7 7 8 7 7 7
4 5 5 7 8 8 7 5 6 4 6 4 2 3 3 4 5 5 5 4 4 4 4 4 5 5 5 6 7 8 8 8 7 7 7 7 7 6 6 6 6 6 7 7
4 4 2 8 9 10 7 7 8 9 8 4 4 4 4 3 4 5 5 5 4 4 3 3 3 4 5 5 6 7 7 7 6 7 7 7 7 6 7 7 6 6 7 7
2 1 7 9 3 5 7 6 6 4 4 5 6 6 5 4 5 6 5 5 4 3 3 2 2 2 3 4 6 6 6 6 6 6 7 6 6 6 6 5 6 6 6 7
3 4 7 6 2 2 4 4 4 6 7 9 10 8 6 6 6 6 7 5 4 4 4 4 4 3 5 5 4 4 3 3 4 5 5 5 5 5 5 4 5 5 4 6
3 4 7 7 2 1 2 4 3 7 11 12 7 5 4 5 7 8 9 7 6 6 7 7 5 5 7 6 6 4 3 2 2 3 4 4 3 3 2 3 3 3 3 3
4 5 7 3 2 1 5 7 3 6 9 7 3 5 9 8 8 8 9 8 7 8 8 7 6 7 9 8 7 5 5 5 5 4 3 3 2 2 2 2 2 2 1 1
3 4 7 4 2 3 4 1 3 5 7 9 11 13 12 10 9 9 9 9 8 9 9 8 7 8 10 8 5 6 7 7 6 5 4 3 3 3 3 3 3 2 2 2
4 5 4 3 3 4 1 2 3 6 10 13 14 13 12 10 9 9 9 8 8 9 10 9 8 8 9 6 5 7 8 7 6 6 6 5 4 4 3 3 2 2 1 1
3 4 3 3 3 3 2 4 7 9 11 13 15 14 13 11 9 8 8 8 8 10 11 9 9 9 7 6 6 8 9 7 7 6 6 6 5 4 3 3 2 2 1 1
3 3 2 4 3 3 6 9 11 12 11 12 15 14 13 11 9 8 8 7 8 9 9 8 8 8 8 6 7 9 8 7 6 6 6 6 6 5 5 4 3 2 1 1
3 3 2 0 2 5 10 10 11 14 14 11 12 14 13 10 8 8 8 7 8 9 8 7 7 8 7 6 7 8 7 6 5 5 4 4 5 6 9 8 10 9 7 4
1 2 4 4 5 7 11 11 12 13 14 13 11 12 12 9 8 8 8 8 8 7 7 6 7 8 7 6 7 8 7 5 4 4 4 4 4 4 4 6 9 9 8 7
3 5 6 6 7 8 12 13 13 14 12 12 11 11 10 10 9 9 8 6 6 7 7 7 8 7 5 5 7 7 6 6 5 4 4 3 3 3 3 3 3 4 5 7
6 6 7 8 10 11 11 13 14 12 11 11 10 10 10 10 9 7 6 6 7 8 7 7 7 6 5 5 7 6 5 4 4 4 3 3 3 3 3 3 3 2 3 4
7 9 10 11 12 11 11 12 12 10 10 10 10 9 9 9 8 7 6 5 6 6 4 5 5 3 4 5 6 5 4 6 5 3 3 3 3 3 3 3 2 2 3 3
8 8 9 10 10 10 9 10 10 9 9 10 9 9 9 8 8 7 5 5 5 4 3 4 3 3 4 4 5 3 3 4 6 4 3 3 2 2 2 2 2 2 2 3
7 7 8 10 10 10 9 9 9 9 8 8 8 8 8 7 6 5 4 4 5 5 4 3 3 3 4 4 3 3 3 3 3 3 2 2 2 2 2 2 3 3 3 4
10 10 10 10 9 9 9 9 8 7 7 7 8 7 6 5 5 4 4 5 5 4 3 3 4 4 4 4 4 2 3 3 3 3 3 3 3 3 3 3 3 3 3 4
10 10 11 10 9 9 8 7 8 7 6 7 8 7 6 5 5 5 5 4 2 0 0 2 3 4 3 3 4 3 3 3 3 3 3 3 3 3 3 3 4 4 4 4
10 11 11 10 9 8 7 7 7 7 6 6 7 6 5 4 4 4 4 3 2 2 2 3 3 2 3 3 4 3 3 3 3 3 3 3 3 3 3 3 3 3 3 3
8 9 9 9 9 8 6 6 6 7 6 6 6 6 6 5 4 4 3 2 1 2 3 3 2 3 5 5 4 4 4 4 3 3 3 3 3 3 3 3 3 3 3 4
7 8 8 8 8 7 7 6 6 6 6 5 5 5 4 3 2 3 2 1 1 3 3 3 4 6 7 5 4 4 4 4 3 3 3 3 3 3 3 3 3 3 3 4
7 7 7 6 7 8 7 5 5 5 5 5 4 4 4 3 2 2 1 2 4 5 4 4 6 7 7 4 4 4 4 4 4 3 3 3 3 3 3 3 3 4 4 4
6 6 6 7 7 5 4 4 5 5 5 4 4 4 3 2 2 2 2 3 5 5 4 5 7 7 5 4 4 4 4 4 4 3 3 3 3 3 3 3 3 3 4 4
5 4 4 4 3 3 2 3 3 2 3 3 3 3 3 3 3 3 3 4 5 5 4 3 4 5 4 4 4 4 4 4 4 4 4 3 3 3 3 4 5 4 4 4
5 4 4 4 3 3 2 3 3 2 2 2 2 2 2 3 3 3 4 4 4 4 4 3 3 4 4 4 4 4 4 3 3 3 3 3 3 3 3 4 3 3 3 4
Wind_Direction
232 244 242 241 234 199 193 192 191 221 224 245 228 201 185 156 137 119 109 125 149 158 162 162 167 177 181 183 179 178 179 187 196 193 188 187 189 191 190 191 197 197 198 203
262 251 245 250 245 223 216 207 213 223 248 236 174 125 120 127 128 125 124 126 122 126 140 155 166 175 181 186 183 176 183 194 193 186 184 189 193 190 188 195 197 193 200 204
253 265 277 247 225 210 207 204 186 206 221 155 137 128 128 121 118 124 117 113 113 116 128 148 168 177 184 186 172 174 185 190 189 187 190 197 196 191 197 201 198 199 204 206
225 189 228 243 244 209 200 214 202 196 163 152 139 112 85 85 105 107 104 101 98 100 101 103 117 143 158 154 160 172 184 189 190 189 195 192 185 194 199 194 198 205 208 209
175 217 262 279 248 193 187 233 204 171 144 132 127 101 72 66 84 95 90 86 81 80 80 75 74 87 101 104 116 132 158 175 178 179 184 180 186 196 194 190 199 204 205 208
185 203 233 244 251 235 123 258 213 166 157 155 144 129 130 94 85 84 78 74 73 74 73 68 56 78 92 89 89 88 91 102 121 140 154 167 180 184 174 183 203 199 206 209
213 231 257 274 308 99 186 236 188 166 161 155 140 128 122 107 89 82 79 74 73 73 68 57 58 80 82 77 73 67 67 71 74 86 111 124 122 120 125 141 135 136 135 106
195 222 254 334 341 210 240 300 135 130 127 116 111 110 107 103 95 87 79 70 68 73 66 52 54 76 78 68 65 72 75 73 69 67 70 78 89 85 91 109 110 109 111 98
207 232 275 300 281 291 285 138 125 120 122 125 120 113 108 101 95 86 79 73 68 74 68 53 49 63 72 56 59 70 70 65 62 63 60 61 74 78 75 78 94 100 115 115
257 270 295 324 346 6 68 112 117 120 124 123 117 115 111 106 98 89 79 73 72 74 69 54 47 54 58 55 62 68 66 58 54 58 56 54 55 58 67 61 72 81 93 87
245 269 347 9 26 69 93 101 106 104 106 113 115 114 111 106 101 93 82 71 71 75 71 57 50 50 44 47 65 69 64 58 53 52 56 56 54 47 52 47 51 78 75 81
232 212 158 42 34 93 104 104 109 109 102 101 110 111 107 102 98 92 84 78 75 71 69 60 56 51 40 42 63 72 65 55 52 53 53 57 63 56 52 57 52 57 64 76
199 114 102 95 80 89 100 101 100 102 106 106 101 105 106 101 94 91 85 79 78 75 71 65 61 51 35 42 64 71 71 62 54 52 54 56 59 67 58 42 49 51 51 58
106 98 85 81 91 95 101 101 98 95 97 100 102 103 103 100 95 90 87 84 83 79 70 66 63 48 28 50 67 68 67 63 63 56 56 58 59 60 66 65 46 33 31 41
67 81 101 101 96 94 99 103 101 99 99 97 100 103 104 103 99 93 89 88 83 76 67 66 63 42 26 55 69 67 65 60 59 57 54 57 61 63 65 67 64 47 28 25
89 91 96 98 99 100 103 105 106 107 106 104 102 101 101 100 97 90 83 86 89 83 70 67 59 35 42 62 67 61 58 64 66 62 55 54 55 59 58 59 56 43 28 17
104 107 110 110 107 105 103 106 111 111 108 108 109 108 103 98 91 82 73 72 83 80 68 67 52 38 54 65 71 66 56 53 56 57 54 56 56 54 51 49 42 30 11 2
95 104 113 118 121 114 107 103 104 106 108 111 111 109 107 107 107 101 91 85 80 64 45 40 49 55 54 59 68 67 65 59 54 56 51 50 50 50 47 43 34 24 8 9
97 98 97 98 104 107 105 103 103 103 106 110 109 107 106 108 112 109 101 92 85 69 20 18 46 57 51 50 70 71 72 69 61 52 50 52 52 47 44 42 35 28 21 19
93 94 94 94 93 98 101 102 103 100 102 109 107 103 99 100 105 104 96 83 68 104 9 45 58 57 50 55 73 73 74 76 72 60 53 52 52 47 42 38 35 32 30 25
94 95 96 95 91 88 95 103 106 104 101 106 111 115 113 104 97 100 99 84 15 32 64 70 68 62 59 69 74 75 73 71 68 64 61 55 52 48 40 33 29 25 23 19
86 90 92 94 92 84 77 86 98 101 97 94 97 103 106 103 97 86 76 95 85 79 80 70 68 73 78 76 71 73 74 72 65 59 57 53 49 42 35 29 26 25 21 15
85 87 88 90 93 89 76 73 81 91 97 102 106 111 113 112 111 112 99 46 88 100 91 80 85 85 82 74 70 70 69 67 63 58 55 52 47 41 35 31 28 25 22 19
84 83 83 85 86 82 75 66 73 79 84 85 89 103 111 104 74 58 98 105 102 100 85 84 87 84 80 74 75 74 70 66 61 58 56 55 52 48 44 39 32 27 24 21
82 80 81 84 83 84 88 86 80 76 79 76 71 70 74 89 111 104 95 95 97 94 86 82 82 84 81 79 77 75 70 66 67 65 58 55 51 49 47 43 36 29 21 13
81 79 77 82 94 101 99 96 92 88 93 88 71 62 67 72 85 88 86 90 92 93 89 83 84 84 82 80 76 73 69 63 62 59 56 53 48 48 46 42 35 26 15 6
73 71 70 64 56 65 81 93 102 103 111 120 106 83 85 86 87 89 90 89 89 89 86 84 87 92 90 85 80 74 69 65 63 62 59 55 51 48 42 37 28 19 9 2